Time,TemperatureF,DewpointF,PressureIn,WindDirection,WindDirectionDegrees,WindSpeedMPH,WindSpeedGustMPH,Humidity,HourlyPrecipIn,Conditions,Clouds,dailyrainin,SoftwareType,DateUTC
2013-10-26 00:00:00,41.0,35.9,30.16,WSW,249,0.0,3.0,82,0.00,,CLR,0.00,VWS V14.01,2013-10-26 04:00:00,
2013-10-26 00:01:00,41.1,36.0,30.16,WSW,248,0.0,3.0,82,0.00,,OVC070,0.01,VWS V14.01,2013-10-26 04:01:00,
2013-10-26 00:02:00,41.0,35.9,30.16,WSW,245,1.0,3.0,82,0.00,,OVC070,0.01,VWS V14.01,2013-10-26 04:02:00,
2013-10-26 00:03:00,41.0,35.9,30.16,WSW,254,0.0,0.0,82,0.00,,OVC070,0.00,VWS V14.01,2013-10-26 04:03:00,
2013-10-26 00:04:00,41.0,35.9,30.16,WSW,257,0.0,1.0,82,0.00,,OVC070,0.00,VWS V14.01,2013-10-26 04:04:00,
2013-10-26 00:09:00,40.9,35.8,30.16,WSW,257,0.0,1.0,82,0.00,,OVC070,0.00,VWS V14.01,2013-10-26 04:09:00,
2013-10-26 00:14:00,40.9,36.1,30.16,West,260,0.0,1.0,83,0.00,,OVC070,0.00,VWS V14.01,2013-10-26 04:14:00,
2013-10-26 00:19:00,40.9,36.1,30.16,West,262,0.0,1.0,83,0.00,,OVC070,0.00,VWS V14.01,2013-10-26 04:19:00,
2013-10-26 00:24:00,40.8,36.0,30.16,West,260,0.0,1.0,83,0.00,,OVC070,0.00,VWS V14.01,2013-10-26 04:24:00,
2013-10-26 00:29:00,40.9,36.1,30.16,WSW,248,0.0,2.0,83,0.00,,OVC070,0.00,VWS V14.01,2013-10-26 04:29:00,
2013-10-26 00:30:00,40.9,36.1,30.16,West,259,1.0,2.0,83,0.00,,CLR,0.00,VWS V14.01,2013-10-26 04:30:00,
2013-10-26 00:34:00,40.9,35.8,30.17,WSW,256,0.0,1.0,82,0.00,,OVC070,0.00,VWS V14.01,2013-10-26 04:34:00,
2013-10-26 00:40:00,41.0,35.9,30.16,WSW,248,0.0,1.0,82,0.00,,OVC070,0.00,VWS V14.01,2013-10-26 04:40:00,
2013-10-26 00:45:00,41.1,36.0,30.16,WSW,245,1.0,2.0,82,0.00,,OVC065,0.00,VWS V14.01,2013-10-26 04:45:00,
2013-10-26 00:50:00,41.0,36.2,30.15,WSW,248,0.0,2.0,83,0.00,,OVC065,0.00,VWS V14.01,2013-10-26 04:50:00,
2013-10-26 00:55:00,40.9,36.1,30.15,WSW,246,0.0,2.0,83,0.00,,OVC065,0.00,VWS V14.01,2013-10-26 04:55:00,
2013-10-26 01:00:00,40.9,36.1,30.15,WSW,254,0.0,2.0,83,0.00,,OVC065,0.00,VWS V14.01,2013-10-26 05:00:00,
2013-10-26 01:05:00,40.9,35.8,30.15,WSW,255,0.0,1.0,82,0.00,,OVC065,0.00,VWS V14.01,2013-10-26 05:05:00,
2013-10-26 01:10:00,41.0,35.9,30.15,West,259,1.0,2.0,82,0.00,,OVC065,0.00,VWS V14.01,2013-10-26 05:10:00,
2013-10-26 01:15:00,41.1,36.0,30.15,West,259,0.0,2.0,82,0.00,,OVC065,0.00,VWS V14.01,2013-10-26 05:15:00,
2013-10-26 01:20:00,41.0,35.6,30.14,SW,233,1.0,2.0,81,0.00,,OVC065,0.00,VWS V14.01,2013-10-26 05:20:00,
2013-10-26 01:25:00,41.0,35.9,30.14,WSW,253,0.0,2.0,82,0.00,,OVC065,0.00,VWS V14.01,2013-10-26 05:25:00,
2013-10-26 01:30:00,40.9,35.5,30.14,West,264,0.0,2.0,81,0.00,,OVC065,0.00,VWS V14.01,2013-10-26 05:30:00,
2013-10-26 01:36:00,40.9,35.5,30.14,WSW,245,0.0,0.0,81,0.00,,OVC065,0.00,VWS V14.01,2013-10-26 05:36:00,
2013-10-26 01:41:00,41.0,35.3,30.14,West,259,2.0,2.0,80,0.00,,OVC065,0.00,VWS V14.01,2013-10-26 05:41:00,
2013-10-26 01:46:00,41.0,35.0,30.14,WSW,253,2.0,3.0,79,0.00,,OVC060,0.00,VWS V14.01,2013-10-26 05:46:00,
2013-10-26 01:51:00,41.1,34.8,30.14,WSW,249,0.0,3.0,78,0.00,,OVC060,0.00,VWS V14.01,2013-10-26 05:51:00,
2013-10-26 01:56:00,41.2,35.2,30.13,WSW,256,0.0,3.0,79,0.00,,OVC060,0.00,VWS V14.01,2013-10-26 05:56:00,
2013-10-26 02:00:00,41.1,35.1,30.13,WSW,246,0.0,3.0,79,0.00,,CLR,0.00,VWS V14.01,2013-10-26 06:00:00,
2013-10-26 02:01:00,41.1,34.8,30.13,WSW,246,0.0,3.0,78,0.00,,OVC060,0.00,VWS V14.01,2013-10-26 06:01:00,
2013-10-26 02:06:00,41.0,35.0,30.13,WSW,246,0.0,0.0,79,0.00,,OVC060,0.00,VWS V14.01,2013-10-26 06:06:00,
2013-10-26 02:11:00,41.0,35.0,30.12,WSW,246,0.0,0.0,79,0.00,,OVC060,0.00,VWS V14.01,2013-10-26 06:11:00,
2013-10-26 02:16:00,40.8,35.1,30.12,WSW,246,0.0,0.0,80,0.00,,OVC060,0.00,VWS V14.01,2013-10-26 06:16:00,
2013-10-26 02:21:00,40.8,35.1,30.12,WSW,245,0.0,0.0,80,0.00,,OVC060,0.00,VWS V14.01,2013-10-26 06:21:00,
2013-10-26 02:26:00,40.7,35.0,30.11,WSW,253,0.0,0.0,80,0.00,,OVC060,0.00,VWS V14.01,2013-10-26 06:26:00,
2013-10-26 02:30:00,40.7,34.7,30.11,WSW,245,2.0,3.0,79,0.00,,CLR,0.00,VWS V14.01,2013-10-26 06:30:00,
2013-10-26 02:32:00,40.7,35.0,30.11,WSW,238,2.0,2.0,80,0.00,,OVC060,0.00,VWS V14.01,2013-10-26 06:32:00,
2013-10-26 02:37:00,40.8,34.5,30.11,West,266,0.0,3.0,78,0.00,,OVC060,0.00,VWS V14.01,2013-10-26 06:37:00,
2013-10-26 02:42:00,40.9,34.6,30.11,West,264,1.0,3.0,78,0.00,,OVC060,0.00,VWS V14.01,2013-10-26 06:42:00,
2013-10-26 02:47:00,40.9,33.9,30.11,WSW,239,2.0,5.0,76,0.00,,OVC060,0.00,VWS V14.01,2013-10-26 06:47:00,
2013-10-26 02:52:00,40.9,33.9,30.10,WSW,242,1.0,5.0,76,0.00,,OVC060,0.00,VWS V14.01,2013-10-26 06:52:00,
2013-10-26 02:57:00,40.9,33.9,30.10,West,264,0.0,5.0,76,0.00,,OVC060,0.00,VWS V14.01,2013-10-26 06:57:00,
2013-10-26 03:00:00,41.0,34.0,30.10,WSW,252,1.0,5.0,76,0.00,,CLR,0.00,VWS V14.01,2013-10-26 07:00:00,
2013-10-26 03:02:00,41.0,34.0,30.10,West,263,1.0,5.0,76,0.00,,OVC060,0.00,VWS V14.01,2013-10-26 07:02:00,
2013-10-26 03:07:00,41.1,33.5,30.10,WSW,253,2.0,4.0,74,0.00,,OVC060,0.00,VWS V14.01,2013-10-26 07:07:00,
2013-10-26 03:12:00,41.2,33.9,30.09,WSW,250,2.0,4.0,75,0.00,,OVC060,0.00,VWS V14.01,2013-10-26 07:12:00,
2013-10-26 03:17:00,41.2,33.5,30.09,WSW,257,0.0,4.0,74,0.00,,OVC060,0.00,VWS V14.01,2013-10-26 07:17:00,
2013-10-26 03:23:00,41.2,32.9,30.09,WSW,257,1.0,4.0,72,0.00,,OVC060,0.00,VWS V14.01,2013-10-26 07:23:00,
2013-10-26 03:28:00,41.5,32.8,30.08,WSW,250,3.0,4.0,71,0.00,,OVC060,0.00,VWS V14.01,2013-10-26 07:28:00,
2013-10-26 03:30:00,41.6,32.6,30.08,West,269,2.0,4.0,70,0.00,,CLR,0.00,VWS V14.01,2013-10-26 07:30:00,
2013-10-26 03:33:00,41.6,32.6,30.08,West,267,2.0,4.0,70,0.00,,OVC060,0.00,VWS V14.01,2013-10-26 07:33:00,
2013-10-26 03:38:00,41.6,32.6,30.08,WSW,255,2.0,4.0,70,0.00,,OVC060,0.00,VWS V14.01,2013-10-26 07:38:00,
2013-10-26 03:43:00,41.7,32.3,30.07,WSW,245,2.0,4.0,69,0.00,,OVC060,0.00,VWS V14.01,2013-10-26 07:43:00,
2013-10-26 03:48:00,41.7,32.3,30.07,WSW,242,2.0,4.0,69,0.00,,OVC070,0.00,VWS V14.01,2013-10-26 07:48:00,
2013-10-26 03:53:00,41.7,31.9,30.07,WSW,257,3.0,4.0,68,0.00,,OVC070,0.00,VWS V14.01,2013-10-26 07:53:00,
2013-10-26 03:58:00,41.7,31.9,30.07,West,262,2.0,6.0,68,0.00,,OVC070,0.00,VWS V14.01,2013-10-26 07:58:00,
2013-10-26 04:00:00,41.8,31.7,30.07,SW,226,4.0,6.0,67,0.00,,CLR,0.00,VWS V14.01,2013-10-26 08:00:00,
2013-10-26 04:03:00,41.8,32.0,30.07,WSW,239,4.0,4.0,68,0.00,,OVC070,0.00,VWS V14.01,2013-10-26 08:03:00,
2013-10-26 04:08:00,41.7,31.6,30.07,WSW,253,3.0,4.0,67,0.00,,OVC070,0.00,VWS V14.01,2013-10-26 08:08:00,
2013-10-26 04:13:00,41.7,31.6,30.07,West,264,2.0,5.0,67,0.00,,OVC070,0.00,VWS V14.01,2013-10-26 08:13:00,
2013-10-26 04:19:00,41.8,31.7,30.07,WSW,246,3.0,6.0,67,0.00,,OVC070,0.00,VWS V14.01,2013-10-26 08:19:00,
2013-10-26 04:24:00,41.9,31.4,30.07,WSW,249,4.0,7.0,66,0.00,,OVC070,0.00,VWS V14.01,2013-10-26 08:24:00,
2013-10-26 04:29:00,41.9,31.0,30.06,WSW,247,5.0,7.0,65,0.00,,OVC070,0.00,VWS V14.01,2013-10-26 08:29:00,
2013-10-26 04:30:00,41.9,31.0,30.06,WSW,239,4.0,7.0,65,0.00,,CLR,0.00,VWS V14.01,2013-10-26 08:30:00,
2013-10-26 04:34:00,41.9,31.0,30.06,WSW,245,5.0,6.0,65,0.00,,OVC070,0.00,VWS V14.01,2013-10-26 08:34:00,
2013-10-26 04:39:00,41.9,30.6,30.06,WSW,253,3.0,6.0,64,0.00,,OVC070,0.00,VWS V14.01,2013-10-26 08:39:00,
2013-10-26 04:44:00,41.9,31.0,30.05,WSW,242,3.0,6.0,65,0.00,,OVC070,0.00,VWS V14.01,2013-10-26 08:44:00,
2013-10-26 04:49:00,41.9,30.6,30.06,WSW,242,3.0,7.0,64,0.00,,OVC060,0.00,VWS V14.01,2013-10-26 08:49:00,
2013-10-26 04:54:00,41.9,30.6,30.05,SW,236,5.0,7.0,64,0.00,,OVC060,0.00,VWS V14.01,2013-10-26 08:54:00,
2013-10-26 04:59:00,41.9,30.6,30.05,WSW,245,7.0,7.0,64,0.00,,OVC060,0.00,VWS V14.01,2013-10-26 08:59:00,
2013-10-26 05:00:00,41.8,30.1,30.05,SW,221,4.0,7.0,63,0.00,,CLR,0.00,VWS V14.01,2013-10-26 09:00:00,
2013-10-26 05:04:00,41.8,30.1,30.04,WSW,239,7.0,10.0,63,0.00,,OVC060,0.00,VWS V14.01,2013-10-26 09:04:00,
2013-10-26 05:10:00,41.9,30.2,30.04,WSW,240,8.0,10.0,63,0.00,,OVC060,0.00,VWS V14.01,2013-10-26 09:10:00,
2013-10-26 05:15:00,41.9,29.9,30.04,WSW,239,8.0,10.0,62,0.00,,OVC060,0.00,VWS V14.01,2013-10-26 09:15:00,
2013-10-26 05:20:00,41.7,29.7,30.04,West,261,4.0,10.0,62,0.00,,OVC060,0.00,VWS V14.01,2013-10-26 09:20:00,
2013-10-26 05:25:00,41.7,29.7,30.04,WSW,245,7.0,10.0,62,0.00,,OVC060,0.00,VWS V14.01,2013-10-26 09:25:00,
2013-10-26 05:30:00,41.7,29.7,30.03,WSW,255,2.0,11.0,62,0.00,,OVC060,0.00,VWS V14.01,2013-10-26 09:30:00,
2013-10-26 05:35:00,41.7,29.7,30.03,WSW,250,8.0,8.0,62,0.00,,OVC060,0.00,VWS V14.01,2013-10-26 09:35:00,
2013-10-26 05:40:00,41.7,29.3,30.03,WSW,245,4.0,10.0,61,0.00,,OVC060,0.00,VWS V14.01,2013-10-26 09:40:00,
2013-10-26 05:45:00,41.7,29.3,30.03,WSW,243,6.0,11.0,61,0.00,,OVC065,0.00,VWS V14.01,2013-10-26 09:45:00,
2013-10-26 05:50:00,41.7,29.3,30.03,WSW,255,5.0,11.0,61,0.00,,OVC065,0.00,VWS V14.01,2013-10-26 09:50:00,
2013-10-26 05:56:00,41.7,29.3,30.03,WSW,250,6.0,11.0,61,0.00,,OVC065,0.00,VWS V14.01,2013-10-26 09:56:00,
2013-10-26 06:00:00,41.7,29.3,30.03,WSW,245,9.0,13.0,61,0.00,,CLR,0.00,VWS V14.01,2013-10-26 10:00:00,
2013-10-26 06:01:00,41.6,29.2,30.03,WSW,245,6.0,13.0,61,0.00,,OVC065,0.00,VWS V14.01,2013-10-26 10:01:00,
2013-10-26 06:06:00,41.6,29.2,30.03,West,262,8.0,8.0,61,0.00,,OVC065,0.00,VWS V14.01,2013-10-26 10:06:00,
2013-10-26 06:11:00,41.7,28.9,30.02,WSW,257,6.0,12.0,60,0.00,,OVC065,0.00,VWS V14.01,2013-10-26 10:11:00,
2013-10-26 06:16:00,41.7,28.9,30.02,WSW,257,7.0,12.0,60,0.00,,OVC065,0.00,VWS V14.01,2013-10-26 10:16:00,
2013-10-26 06:21:00,41.7,28.4,30.02,SW,236,10.0,13.0,59,0.00,,OVC065,0.00,VWS V14.01,2013-10-26 10:21:00,
2013-10-26 06:26:00,41.7,28.4,30.02,SW,235,8.0,13.0,59,0.00,,OVC065,0.00,VWS V14.01,2013-10-26 10:26:00,
2013-10-26 06:30:00,41.8,28.5,30.02,West,259,7.0,14.0,59,0.00,,CLR,0.00,VWS V14.01,2013-10-26 10:30:00,
2013-10-26 06:31:00,41.8,28.5,30.02,SW,229,4.0,14.0,59,0.00,,OVC065,0.00,VWS V14.01,2013-10-26 10:31:00,
2013-10-26 06:36:00,41.8,28.5,30.02,WSW,245,6.0,12.0,59,0.00,,OVC065,0.00,VWS V14.01,2013-10-26 10:36:00,
2013-10-26 06:41:00,41.8,28.5,30.02,WSW,242,6.0,12.0,59,0.00,,OVC065,0.00,VWS V14.01,2013-10-26 10:41:00,
2013-10-26 06:46:00,41.9,28.2,30.02,WSW,245,8.0,15.0,58,0.00,,OVC100,0.00,VWS V14.01,2013-10-26 10:46:00,
2013-10-26 06:52:00,41.8,28.5,30.01,West,278,7.0,15.0,59,0.00,,OVC100,0.00,VWS V14.01,2013-10-26 10:52:00,
2013-10-26 06:57:00,41.8,28.1,30.01,WSW,249,5.0,15.0,58,0.00,,OVC100,0.00,VWS V14.01,2013-10-26 10:57:00,
2013-10-26 07:00:00,41.8,28.1,30.00,WSW,239,11.0,15.0,58,0.00,,CLR,0.00,VWS V14.01,2013-10-26 11:00:00,
2013-10-26 07:02:00,41.8,28.1,30.01,WSW,245,9.0,15.0,58,0.00,,OVC100,0.00,VWS V14.01,2013-10-26 11:02:00,
2013-10-26 07:07:00,41.7,28.4,30.00,WSW,242,10.0,11.0,59,0.00,,OVC100,0.00,VWS V14.01,2013-10-26 11:07:00,
2013-10-26 07:12:00,41.6,28.4,30.01,WSW,241,10.0,11.0,59,0.00,,OVC100,0.00,VWS V14.01,2013-10-26 11:12:00,
2013-10-26 07:17:00,41.5,28.3,30.00,WSW,248,4.0,11.0,59,0.00,,OVC100,0.00,VWS V14.01,2013-10-26 11:17:00,
2013-10-26 07:22:00,41.5,28.7,30.00,SW,233,6.0,12.0,60,0.00,,OVC100,0.00,VWS V14.01,2013-10-26 11:22:00,
2013-10-26 07:27:00,41.4,28.6,30.00,SW,229,8.0,12.0,60,0.00,,OVC100,0.00,VWS V14.01,2013-10-26 11:27:00,
2013-10-26 07:30:00,41.4,28.6,30.00,WSW,240,9.0,15.0,60,0.00,,CLR,0.00,VWS V14.01,2013-10-26 11:30:00,
2013-10-26 07:32:00,41.4,28.2,30.00,WSW,238,9.0,15.0,59,0.00,,OVC100,0.00,VWS V14.01,2013-10-26 11:32:00,
2013-10-26 07:37:00,41.4,28.6,30.00,WSW,243,9.0,12.0,60,0.00,,OVC100,0.00,VWS V14.01,2013-10-26 11:37:00,
2013-10-26 07:42:00,41.3,28.5,30.00,WSW,249,5.0,13.0,60,0.00,,OVC100,0.00,VWS V14.01,2013-10-26 11:42:00,
2013-10-26 07:48:00,41.2,28.4,29.99,SW,235,8.0,13.0,60,0.00,,OVC100,0.00,VWS V14.01,2013-10-26 11:48:00,
2013-10-26 07:53:00,41.1,28.7,29.99,WSW,248,6.0,13.0,61,0.00,,OVC100,0.00,VWS V14.01,2013-10-26 11:53:00,
2013-10-26 07:58:00,41.1,28.7,29.99,WSW,256,4.0,13.0,61,0.00,,OVC100,0.00,VWS V14.01,2013-10-26 11:58:00,
2013-10-26 08:00:00,41.1,28.7,29.99,SW,228,6.0,13.0,61,0.00,,CLR,0.00,VWS V14.01,2013-10-26 12:00:00,
2013-10-26 08:03:00,41.1,28.7,29.99,SW,228,6.0,13.0,61,0.00,,OVC100,0.00,VWS V14.01,2013-10-26 12:03:00,
2013-10-26 08:08:00,41.1,28.7,29.99,WSW,248,9.0,13.0,61,0.00,,OVC100,0.00,VWS V14.01,2013-10-26 12:08:00,
2013-10-26 08:13:00,41.1,28.7,29.98,WSW,242,5.0,13.0,61,0.00,,OVC100,0.00,VWS V14.01,2013-10-26 12:13:00,
2013-10-26 08:18:00,41.0,28.6,29.98,WSW,238,5.0,13.0,61,0.00,,OVC100,0.00,VWS V14.01,2013-10-26 12:18:00,
2013-10-26 08:23:00,41.0,28.6,29.98,SW,232,7.0,13.0,61,0.00,,OVC100,0.00,VWS V14.01,2013-10-26 12:23:00,
2013-10-26 08:28:00,41.0,28.6,29.98,WSW,249,8.0,13.0,61,0.00,,OVC100,0.00,VWS V14.01,2013-10-26 12:28:00,
2013-10-26 08:30:00,41.0,29.0,29.98,WSW,245,11.0,13.0,62,0.00,,CLR,0.00,VWS V14.01,2013-10-26 12:30:00,
2013-10-26 08:33:00,41.0,28.6,29.98,WSW,245,9.0,11.0,61,0.00,,OVC100,0.00,VWS V14.01,2013-10-26 12:33:00,
2013-10-26 08:39:00,41.1,28.7,29.98,WSW,242,8.0,11.0,61,0.00,,OVC100,0.00,VWS V14.01,2013-10-26 12:39:00,
2013-10-26 08:44:00,41.1,28.7,29.98,WSW,249,9.0,12.0,61,0.00,,OVC100,0.00,VWS V14.01,2013-10-26 12:44:00,
2013-10-26 08:49:00,41.1,28.7,29.98,SW,221,9.0,14.0,61,0.00,,OVC100,0.00,VWS V14.01,2013-10-26 12:49:00,
2013-10-26 08:54:00,41.1,28.7,29.97,WSW,242,6.0,14.0,61,0.00,,OVC100,0.00,VWS V14.01,2013-10-26 12:54:00,
2013-10-26 08:59:00,41.1,28.7,29.97,SW,236,7.0,14.0,61,0.00,,OVC100,0.00,VWS V14.01,2013-10-26 12:59:00,
2013-10-26 09:00:00,41.1,28.7,29.97,WSW,238,7.0,14.0,61,0.00,,CLR,0.00,VWS V14.01,2013-10-26 13:00:00,
2013-10-26 09:04:00,41.1,29.1,29.97,SW,226,8.0,11.0,62,0.00,,BKN120,0.00,VWS V14.01,2013-10-26 13:04:00,
2013-10-26 09:09:00,41.1,28.7,29.97,SW,233,8.0,11.0,61,0.00,,BKN120,0.00,VWS V14.01,2013-10-26 13:09:00,
2013-10-26 09:14:00,41.1,29.1,29.97,WSW,239,6.0,11.0,62,0.00,,BKN120,0.00,VWS V14.01,2013-10-26 13:14:00,
2013-10-26 09:19:00,41.2,29.2,29.96,SW,229,7.0,11.0,62,0.00,,BKN120,0.00,VWS V14.01,2013-10-26 13:19:00,
2013-10-26 09:24:00,41.2,28.8,29.96,SW,228,6.0,11.0,61,0.00,,BKN120,0.00,VWS V14.01,2013-10-26 13:24:00,
2013-10-26 09:29:00,41.3,29.3,29.96,WSW,247,4.0,11.0,62,0.00,,BKN120,0.00,VWS V14.01,2013-10-26 13:29:00,
2013-10-26 09:30:00,41.4,29.4,29.96,SW,226,7.0,11.0,62,0.00,,CLR,0.00,VWS V14.01,2013-10-26 13:30:00,
2013-10-26 09:34:00,41.4,29.4,29.96,WSW,242,6.0,10.0,62,0.00,,BKN120,0.00,VWS V14.01,2013-10-26 13:34:00,
2013-10-26 09:40:00,41.5,29.1,29.95,WSW,249,9.0,10.0,61,0.00,,BKN120,0.00,VWS V14.01,2013-10-26 13:40:00,
2013-10-26 09:45:00,41.7,29.3,29.95,SW,232,7.0,10.0,61,0.00,,BKN100,0.00,VWS V14.01,2013-10-26 13:45:00,
2013-10-26 09:50:00,41.8,29.4,29.95,WSW,245,8.0,11.0,61,0.00,,BKN100,0.00,VWS V14.01,2013-10-26 13:50:00,
2013-10-26 09:55:00,41.9,29.5,29.95,WSW,242,6.0,11.0,61,0.00,,BKN100,0.00,VWS V14.01,2013-10-26 13:55:00,
2013-10-26 10:00:00,42.0,29.1,29.94,SW,219,9.0,13.0,60,0.00,,BKN100,0.00,VWS V14.01,2013-10-26 14:00:00,
2013-10-26 10:05:00,42.0,29.1,29.94,WSW,245,6.0,10.0,60,0.00,,BKN100,0.00,VWS V14.01,2013-10-26 14:05:00,
2013-10-26 10:10:00,42.1,29.6,29.94,WSW,238,12.0,12.0,61,0.00,,BKN100,0.00,VWS V14.01,2013-10-26 14:10:00,
2013-10-26 10:15:00,42.2,28.9,29.94,WSW,242,6.0,12.0,59,0.00,,BKN100,0.00,VWS V14.01,2013-10-26 14:15:00,
2013-10-26 10:20:00,42.3,29.0,29.93,WSW,250,6.0,13.0,59,0.00,,BKN100,0.00,VWS V14.01,2013-10-26 14:20:00,
2013-10-26 10:25:00,42.5,29.2,29.93,WSW,245,6.0,13.0,59,0.00,,BKN100,0.00,VWS V14.01,2013-10-26 14:25:00,
2013-10-26 10:30:00,42.7,29.4,29.92,SW,235,7.0,13.0,59,0.00,,CLR,0.00,VWS V14.01,2013-10-26 14:30:00,
2013-10-26 10:31:00,42.7,29.4,29.93,WSW,245,8.0,13.0,59,0.00,,BKN100,0.00,VWS V14.01,2013-10-26 14:31:00,
2013-10-26 10:36:00,42.8,29.1,29.92,WSW,245,8.0,11.0,58,0.00,,BKN100,0.00,VWS V14.01,2013-10-26 14:36:00,
2013-10-26 10:41:00,43.0,29.7,29.92,SW,223,8.0,11.0,59,0.00,,BKN100,0.00,VWS V14.01,2013-10-26 14:41:00,
2013-10-26 10:46:00,43.1,28.9,29.92,SW,234,9.0,15.0,57,0.00,,FEW080,0.00,VWS V14.01,2013-10-26 14:46:00,
2013-10-26 10:51:00,43.2,29.0,29.91,WSW,245,10.0,15.0,57,0.00,,FEW080,0.00,VWS V14.01,2013-10-26 14:51:00,
2013-10-26 10:56:00,43.3,28.7,29.91,WSW,248,12.0,15.0,56,0.00,,FEW080,0.00,VWS V14.01,2013-10-26 14:56:00,
2013-10-26 11:00:00,43.2,28.6,29.90,West,278,8.0,16.0,56,0.00,,CLR,0.00,VWS V14.01,2013-10-26 15:00:00,
2013-10-26 11:01:00,43.3,29.1,29.90,SW,225,14.0,15.0,57,0.00,,FEW080,0.00,VWS V14.01,2013-10-26 15:01:00,
2013-10-26 11:06:00,43.2,29.0,29.90,WSW,239,11.0,16.0,57,0.00,,FEW080,0.00,VWS V14.01,2013-10-26 15:06:00,
2013-10-26 11:11:00,43.3,28.7,29.90,WSW,242,10.0,16.0,56,0.00,,FEW080,0.00,VWS V14.01,2013-10-26 15:11:00,
2013-10-26 11:16:00,43.4,28.8,29.90,WSW,256,10.0,16.0,56,0.00,,FEW080,0.00,VWS V14.01,2013-10-26 15:16:00,
2013-10-26 11:22:00,43.4,29.2,29.89,WSW,243,10.0,16.0,57,0.00,,FEW080,0.00,VWS V14.01,2013-10-26 15:22:00,
2013-10-26 11:27:00,43.6,29.0,29.89,WSW,250,7.0,16.0,56,0.00,,FEW080,0.00,VWS V14.01,2013-10-26 15:27:00,
2013-10-26 11:30:00,43.8,28.2,29.88,WSW,252,8.0,17.0,54,0.00,,CLR,0.00,VWS V14.01,2013-10-26 15:30:00,
2013-10-26 11:32:00,43.8,29.1,29.89,SW,232,9.0,17.0,56,0.00,,FEW080,0.00,VWS V14.01,2013-10-26 15:32:00,
2013-10-26 11:37:00,44.0,28.4,29.88,SW,236,12.0,13.0,54,0.00,,FEW080,0.00,VWS V14.01,2013-10-26 15:37:00,
2013-10-26 11:42:00,44.1,29.4,29.88,WSW,253,6.0,13.0,56,0.00,,FEW080,0.00,VWS V14.01,2013-10-26 15:42:00,
2013-10-26 11:47:00,44.2,28.2,29.88,West,259,11.0,14.0,53,0.00,,CLR,0.00,VWS V14.01,2013-10-26 15:47:00,
2013-10-26 11:52:00,44.3,28.3,29.87,WSW,255,9.0,14.0,53,0.00,,CLR,0.00,VWS V14.01,2013-10-26 15:52:00,
2013-10-26 11:57:00,44.4,28.4,29.87,West,269,6.0,15.0,53,0.00,,CLR,0.00,VWS V14.01,2013-10-26 15:57:00,
2013-10-26 12:00:00,44.4,28.4,29.87,WSW,245,9.0,15.0,53,0.00,,CLR,0.00,VWS V14.01,2013-10-26 16:00:00,
2013-10-26 12:02:00,44.4,28.4,29.87,West,262,5.0,15.0,53,0.00,,CLR,0.00,VWS V14.01,2013-10-26 16:02:00,
2013-10-26 12:07:00,44.5,28.5,29.87,WSW,242,12.0,14.0,53,0.00,,CLR,0.00,VWS V14.01,2013-10-26 16:07:00,
2013-10-26 12:13:00,44.7,28.6,29.86,WSW,242,9.0,14.0,53,0.00,,CLR,0.00,VWS V14.01,2013-10-26 16:13:00,
2013-10-26 12:18:00,44.9,28.4,29.86,WSW,239,10.0,14.0,52,0.00,,CLR,0.00,VWS V14.01,2013-10-26 16:18:00,
2013-10-26 12:23:00,45.1,28.1,29.86,WSW,242,11.0,15.0,51,0.00,,CLR,0.00,VWS V14.01,2013-10-26 16:23:00,
2013-10-26 12:28:00,45.3,27.8,29.85,WSW,246,9.0,15.0,50,0.00,,CLR,0.00,VWS V14.01,2013-10-26 16:28:00,
2013-10-26 12:30:00,45.6,28.0,29.86,WSW,250,7.0,15.0,50,0.00,,CLR,0.00,VWS V14.01,2013-10-26 16:30:00,
2013-10-26 12:33:00,45.6,28.0,29.86,WSW,250,7.0,15.0,50,0.00,,CLR,0.00,VWS V14.01,2013-10-26 16:33:00,
2013-10-26 12:38:00,45.7,28.6,29.86,WSW,246,13.0,14.0,51,0.00,,CLR,0.00,VWS V14.01,2013-10-26 16:38:00,
2013-10-26 12:43:00,45.9,27.8,29.85,WSW,242,5.0,14.0,49,0.00,,CLR,0.00,VWS V14.01,2013-10-26 16:43:00,
2013-10-26 12:48:00,46.0,28.9,29.85,SW,226,11.0,14.0,51,0.00,,CLR,0.00,VWS V14.01,2013-10-26 16:48:00,
2013-10-26 12:53:00,46.1,28.5,29.85,SW,232,6.0,14.0,50,0.00,,CLR,0.00,VWS V14.01,2013-10-26 16:53:00,
2013-10-26 12:58:00,46.2,28.6,29.85,WSW,257,4.0,14.0,50,0.00,,CLR,0.00,VWS V14.01,2013-10-26 16:58:00,
2013-10-26 13:00:00,46.2,28.6,29.85,SW,228,5.0,14.0,50,0.00,,CLR,0.00,VWS V14.01,2013-10-26 17:00:00,
2013-10-26 13:03:00,46.2,28.6,29.85,SW,226,7.0,9.0,50,0.00,,CLR,0.00,VWS V14.01,2013-10-26 17:03:00,
2013-10-26 13:08:00,46.3,28.7,29.85,SW,233,8.0,13.0,50,0.00,,CLR,0.00,VWS V14.01,2013-10-26 17:08:00,
2013-10-26 13:14:00,46.4,28.8,29.85,WSW,253,4.0,13.0,50,0.00,,CLR,0.00,VWS V14.01,2013-10-26 17:14:00,
2013-10-26 13:19:00,46.4,28.8,29.84,WSW,242,6.0,13.0,50,0.00,,CLR,0.00,VWS V14.01,2013-10-26 17:19:00,
2013-10-26 13:24:00,46.5,28.9,29.85,WSW,247,2.0,13.0,50,0.00,,CLR,0.00,VWS V14.01,2013-10-26 17:24:00,
2013-10-26 13:29:00,46.6,28.5,29.85,WSW,253,4.0,13.0,49,0.00,,CLR,0.00,VWS V14.01,2013-10-26 17:29:00,
2013-10-26 13:30:00,46.7,29.1,29.85,West,264,3.0,13.0,50,0.00,,CLR,0.00,VWS V14.01,2013-10-26 17:30:00,
2013-10-26 13:34:00,46.7,29.1,29.85,West,262,4.0,4.0,50,0.00,,CLR,0.00,VWS V14.01,2013-10-26 17:34:00,
2013-10-26 14:00:00,47.0,29.3,29.84,WSW,248,5.0,11.0,50,0.00,,CLR,0.00,VWS V14.01,2013-10-26 18:00:00,
2013-10-26 14:30:00,47.2,29.5,29.84,WSW,248,4.0,11.0,50,0.00,,CLR,0.00,VWS V14.01,2013-10-26 18:30:00,
2013-10-26 15:31:00,46.1,31.7,29.84,WSW,257,5.0,5.0,57,0.00,,CLR,0.00,VWS V14.01,2013-10-26 19:31:00,
2013-10-26 15:36:00,46.0,31.6,29.84,SW,236,8.0,11.0,57,0.00,,CLR,0.00,VWS V14.01,2013-10-26 19:36:00,
2013-10-26 15:41:00,45.9,32.4,29.84,West,265,4.0,11.0,59,0.00,,CLR,0.00,VWS V14.01,2013-10-26 19:41:00,
2013-10-26 15:46:00,45.7,32.2,29.84,WSW,245,6.0,11.0,59,0.00,,OVC060,0.00,VWS V14.01,2013-10-26 19:46:00,
2013-10-26 15:51:00,45.7,32.2,29.83,WSW,242,6.0,12.0,59,0.00,,OVC060,0.00,VWS V14.01,2013-10-26 19:51:00,
2013-10-26 15:56:00,45.7,32.2,29.84,West,262,2.0,12.0,59,0.00,,OVC060,0.00,VWS V14.01,2013-10-26 19:56:00,
2013-10-26 16:01:00,45.6,32.9,29.84,WSW,240,4.0,12.0,61,0.00,,OVC060,0.00,VWS V14.01,2013-10-26 20:01:00,
2013-10-26 16:06:00,45.6,32.5,29.84,SW,222,8.0,9.0,60,0.00,,OVC060,0.00,VWS V14.01,2013-10-26 20:06:00,
2013-10-26 16:12:00,45.7,32.2,29.84,West,281,2.0,9.0,59,0.00,,OVC060,0.00,VWS V14.01,2013-10-26 20:12:00,
2013-10-26 16:17:00,45.8,32.3,29.84,WSW,239,5.0,9.0,59,0.00,,OVC060,0.00,VWS V14.01,2013-10-26 20:17:00,
2013-10-26 16:22:00,45.9,32.4,29.84,WSW,252,3.0,9.0,59,0.00,,OVC060,0.00,VWS V14.01,2013-10-26 20:22:00,
2013-10-26 16:27:00,46.0,32.5,29.84,SW,235,9.0,9.0,59,0.00,,OVC060,0.00,VWS V14.01,2013-10-26 20:27:00,
2013-10-26 16:32:00,46.1,32.2,29.84,WSW,242,8.0,10.0,58,0.00,,OVC060,0.00,VWS V14.01,2013-10-26 20:32:00,
2013-10-26 16:37:00,46.2,32.2,29.84,WSW,246,2.0,6.0,58,0.00,,OVC060,0.00,VWS V14.01,2013-10-26 20:37:00,
2013-10-26 16:42:00,46.1,32.2,29.84,SW,236,5.0,8.0,58,0.00,,OVC060,0.00,VWS V14.01,2013-10-26 20:42:00,
2013-10-26 16:47:00,46.1,32.2,29.84,West,265,4.0,8.0,58,0.00,,OVC060,0.00,VWS V14.01,2013-10-26 20:47:00,
2013-10-26 16:52:00,46.2,32.2,29.84,SW,222,5.0,9.0,58,0.00,,OVC060,0.00,VWS V14.01,2013-10-26 20:52:00,
2013-10-26 16:58:00,46.4,31.6,29.84,WSW,248,7.0,10.0,56,0.00,,OVC060,0.00,VWS V14.01,2013-10-26 20:58:00,
2013-10-26 17:03:00,46.5,31.7,29.83,West,262,9.0,15.0,56,0.00,,OVC060,0.00,VWS V14.01,2013-10-26 21:03:00,
2013-10-26 17:08:00,46.5,31.7,29.83,West,270,7.0,9.0,56,0.00,,OVC060,0.00,VWS V14.01,2013-10-26 21:08:00,
2013-10-26 17:13:00,46.6,31.3,29.83,SW,236,10.0,12.0,55,0.00,,OVC060,0.00,VWS V14.01,2013-10-26 21:13:00,
2013-10-26 17:18:00,46.7,31.4,29.84,WSW,238,6.0,12.0,55,0.00,,OVC060,0.00,VWS V14.01,2013-10-26 21:18:00,
2013-10-26 17:23:00,46.6,31.3,29.83,WSW,239,7.0,12.0,55,0.00,,OVC060,0.00,VWS V14.01,2013-10-26 21:23:00,
2013-10-26 17:28:00,46.7,31.4,29.83,SW,228,8.0,12.0,55,0.00,,OVC060,0.00,VWS V14.01,2013-10-26 21:28:00,
2013-10-26 17:33:00,46.6,31.8,29.83,SW,233,7.0,10.0,56,0.00,,OVC060,0.00,VWS V14.01,2013-10-26 21:33:00,
2013-10-26 17:38:00,46.5,31.7,29.83,West,270,6.0,15.0,56,0.00,,OVC060,0.00,VWS V14.01,2013-10-26 21:38:00,
2013-10-26 17:43:00,46.4,31.6,29.83,SW,220,4.0,15.0,56,0.00,,OVC060,0.00,VWS V14.01,2013-10-26 21:43:00,
2013-10-26 17:49:00,46.4,31.6,29.83,WSW,239,4.0,15.0,56,0.00,,OVC070,0.00,VWS V14.01,2013-10-26 21:49:00,
2013-10-26 17:54:00,46.3,31.5,29.83,WSW,238,10.0,15.0,56,0.00,,OVC070,0.00,VWS V14.01,2013-10-26 21:54:00,
2013-10-26 17:59:00,46.2,31.8,29.83,WSW,239,5.0,15.0,57,0.00,,OVC070,0.00,VWS V14.01,2013-10-26 21:59:00,
2013-10-26 18:04:00,46.1,31.7,29.83,West,263,4.0,8.0,57,0.00,,OVC070,0.00,VWS V14.01,2013-10-26 22:04:00,
2013-10-26 18:09:00,46.0,32.1,29.83,WSW,243,6.0,11.0,58,0.00,,OVC070,0.00,VWS V14.01,2013-10-26 22:09:00,
2013-10-26 18:14:00,45.9,32.0,29.83,West,262,4.0,11.0,58,0.00,,OVC070,0.00,VWS V14.01,2013-10-26 22:14:00,
2013-10-26 18:19:00,45.8,31.9,29.84,SW,219,7.0,11.0,58,0.00,,OVC070,0.00,VWS V14.01,2013-10-26 22:19:00,
2013-10-26 18:24:00,45.7,32.2,29.84,SW,214,4.0,11.0,59,0.00,,OVC070,0.00,VWS V14.01,2013-10-26 22:24:00,
2013-10-26 18:29:00,45.7,32.2,29.83,SW,236,8.0,11.0,59,0.00,,OVC070,0.00,VWS V14.01,2013-10-26 22:29:00,
2013-10-26 18:34:00,45.7,32.2,29.83,WSW,248,7.0,8.0,59,0.00,,OVC070,0.00,VWS V14.01,2013-10-26 22:34:00,
2013-10-26 18:40:00,45.6,32.1,29.83,WSW,254,5.0,13.0,59,0.00,,OVC070,0.00,VWS V14.01,2013-10-26 22:40:00,
2013-10-26 18:45:00,45.6,32.1,29.84,West,259,6.0,13.0,59,0.00,,OVC060,0.00,VWS V14.01,2013-10-26 22:45:00,
2013-10-26 18:50:00,45.5,32.0,29.83,SW,236,5.0,13.0,59,0.00,,OVC060,0.00,VWS V14.01,2013-10-26 22:50:00,
2013-10-26 18:55:00,45.5,32.0,29.84,SW,235,6.0,13.0,59,0.00,,OVC060,0.00,VWS V14.01,2013-10-26 22:55:00,
2013-10-26 19:00:00,45.4,31.9,29.84,WSW,238,7.0,13.0,59,0.00,,OVC060,0.00,VWS V14.01,2013-10-26 23:00:00,
2013-10-26 19:05:00,45.4,31.9,29.84,WSW,242,4.0,9.0,59,0.00,,OVC060,0.00,VWS V14.01,2013-10-26 23:05:00,
2013-10-26 19:10:00,45.4,32.3,29.84,WSW,245,5.0,9.0,60,0.00,,OVC060,0.00,VWS V14.01,2013-10-26 23:10:00,
2013-10-26 19:15:00,45.3,32.2,29.84,SW,236,6.0,9.0,60,0.00,,OVC060,0.00,VWS V14.01,2013-10-26 23:15:00,
2013-10-26 19:20:00,45.3,32.2,29.84,WSW,242,3.0,9.0,60,0.00,,OVC060,0.00,VWS V14.01,2013-10-26 23:20:00,
2013-10-26 19:25:00,45.2,32.2,29.84,West,263,5.0,9.0,60,0.00,,OVC060,0.00,VWS V14.01,2013-10-26 23:25:00,
2013-10-26 19:31:00,45.2,32.2,29.84,WSW,253,7.0,9.0,60,0.00,,OVC060,0.00,VWS V14.01,2013-10-26 23:31:00,
2013-10-26 19:36:00,45.2,32.2,29.84,WSW,241,5.0,13.0,60,0.00,,OVC060,0.00,VWS V14.01,2013-10-26 23:36:00,
2013-10-26 19:41:00,45.2,32.2,29.84,SW,233,4.0,13.0,60,0.00,,OVC060,0.00,VWS V14.01,2013-10-26 23:41:00,
2013-10-26 19:46:00,45.2,32.2,29.84,West,270,9.0,13.0,60,0.00,,OVC055,0.00,VWS V14.01,2013-10-26 23:46:00,
2013-10-26 19:51:00,45.1,32.1,29.84,WSW,252,6.0,13.0,60,0.00,,OVC055,0.00,VWS V14.01,2013-10-26 23:51:00,
2013-10-26 19:56:00,45.1,32.1,29.83,West,272,10.0,13.0,60,0.00,,OVC055,0.00,VWS V14.01,2013-10-26 23:56:00,
2013-10-26 20:01:00,45.1,32.1,29.84,WSW,242,6.0,13.0,60,0.00,,OVC055,0.00,VWS V14.01,2013-10-27 00:01:00,
2013-10-26 20:06:00,45.1,31.6,29.83,WSW,255,5.0,10.0,59,0.00,,OVC055,0.00,VWS V14.01,2013-10-27 00:06:00,
2013-10-26 20:11:00,44.9,31.9,29.83,WSW,242,9.0,11.0,60,0.00,,OVC055,0.00,VWS V14.01,2013-10-27 00:11:00,
2013-10-26 20:16:00,44.9,31.9,29.83,WSW,242,8.0,11.0,60,0.00,,OVC055,0.00,VWS V14.01,2013-10-27 00:16:00,
2013-10-26 20:22:00,45.0,32.4,29.82,WSW,242,9.0,12.0,61,0.00,,OVC055,0.00,VWS V14.01,2013-10-27 00:22:00,
2013-10-26 20:27:00,44.9,32.3,29.82,WSW,256,4.0,12.0,61,0.00,,OVC055,0.00,VWS V14.01,2013-10-27 00:27:00,
2013-10-26 20:32:00,44.9,32.3,29.82,WSW,250,6.0,14.0,61,0.00,,OVC110,0.00,VWS V14.01,2013-10-27 00:32:00,
2013-10-26 20:37:00,44.9,32.3,29.82,WSW,242,9.0,17.0,61,0.00,,OVC110,0.00,VWS V14.01,2013-10-27 00:37:00,
2013-10-26 20:42:00,44.9,32.3,29.82,West,274,6.0,17.0,61,0.00,,OVC110,0.00,VWS V14.01,2013-10-27 00:42:00,
2013-10-26 20:47:00,44.7,32.5,29.82,West,260,5.0,17.0,62,0.00,,OVC110,0.00,VWS V14.01,2013-10-27 00:47:00,
2013-10-26 20:52:00,44.7,32.5,29.82,WSW,239,9.0,17.0,62,0.00,,OVC110,0.00,VWS V14.01,2013-10-27 00:52:00,
2013-10-26 20:57:00,44.7,32.5,29.82,West,277,5.0,17.0,62,0.00,,OVC110,0.00,VWS V14.01,2013-10-27 00:57:00,
2013-10-26 21:02:00,44.6,32.8,29.82,West,272,4.0,17.0,63,0.00,,OVC110,0.00,VWS V14.01,2013-10-27 01:02:00,
2013-10-26 21:08:00,44.6,32.8,29.82,WSW,257,8.0,13.0,63,0.00,,OVC110,0.00,VWS V14.01,2013-10-27 01:08:00,
2013-10-26 21:13:00,44.5,32.7,29.82,WSW,242,9.0,13.0,63,0.00,,OVC110,0.00,VWS V14.01,2013-10-27 01:13:00,
2013-10-26 21:18:00,44.5,33.1,29.82,WSW,241,6.0,13.0,64,0.00,,OVC110,0.00,VWS V14.01,2013-10-27 01:18:00,
2013-10-26 21:23:00,44.4,33.0,29.82,WSW,245,6.0,13.0,64,0.00,,OVC110,0.00,VWS V14.01,2013-10-27 01:23:00,
2013-10-26 21:28:00,44.3,32.9,29.83,WSW,242,8.0,13.0,64,0.00,,OVC110,0.00,VWS V14.01,2013-10-27 01:28:00,
2013-10-26 21:33:00,44.3,32.9,29.82,WSW,257,5.0,6.0,64,0.00,,OVC110,0.00,VWS V14.01,2013-10-27 01:33:00,
2013-10-26 21:38:00,44.2,32.8,29.82,WSW,250,7.0,11.0,64,0.00,,OVC110,0.00,VWS V14.01,2013-10-27 01:38:00,
2013-10-26 21:43:00,44.1,32.7,29.83,West,264,5.0,11.0,64,0.00,,OVC110,0.00,VWS V14.01,2013-10-27 01:43:00,
2013-10-26 21:48:00,44.0,33.0,29.82,WSW,257,4.0,11.0,65,0.00,,OVC090,0.00,VWS V14.01,2013-10-27 01:48:00,
2013-10-26 21:54:00,44.0,33.0,29.82,WSW,242,9.0,12.0,65,0.00,,OVC090,0.00,VWS V14.01,2013-10-27 01:54:00,
2013-10-26 21:59:00,44.0,33.0,29.83,WSW,239,8.0,12.0,65,0.00,,OVC090,0.00,VWS V14.01,2013-10-27 01:59:00,
2013-10-26 22:04:00,44.1,33.1,29.83,WSW,248,5.0,8.0,65,0.00,,OVC090,0.00,VWS V14.01,2013-10-27 02:04:00,
2013-10-26 22:09:00,44.0,33.0,29.83,WSW,238,10.0,10.0,65,0.00,,OVC090,0.00,VWS V14.01,2013-10-27 02:09:00,
2013-10-26 22:14:00,44.1,33.5,29.84,WSW,239,4.0,11.0,66,0.00,,OVC090,0.00,VWS V14.01,2013-10-27 02:14:00,
2013-10-26 22:19:00,44.0,33.4,29.84,West,278,4.0,11.0,66,0.00,,OVC090,0.00,VWS V14.01,2013-10-27 02:19:00,
2013-10-26 22:24:00,43.9,33.3,29.83,WSW,248,10.0,11.0,66,0.00,,OVC090,0.00,VWS V14.01,2013-10-27 02:24:00,
2013-10-26 22:29:00,44.0,33.4,29.84,SW,226,7.0,11.0,66,0.00,,OVC090,0.00,VWS V14.01,2013-10-27 02:29:00,
2013-10-26 22:34:00,43.9,33.3,29.83,West,260,3.0,7.0,66,0.00,,OVC090,0.00,VWS V14.01,2013-10-27 02:34:00,
2013-10-26 22:39:00,43.9,33.3,29.83,WSW,246,4.0,9.0,66,0.00,,OVC090,0.00,VWS V14.01,2013-10-27 02:39:00,
2013-10-26 22:45:00,43.8,33.6,29.84,West,276,3.0,9.0,67,0.00,,OVC085,0.00,VWS V14.01,2013-10-27 02:45:00,
2013-10-26 22:50:00,43.7,33.5,29.84,WSW,238,7.0,9.0,67,0.00,,OVC085,0.00,VWS V14.01,2013-10-27 02:50:00,
2013-10-26 22:55:00,43.7,33.5,29.83,West,259,2.0,9.0,67,0.00,,OVC085,0.00,VWS V14.01,2013-10-27 02:55:00,
2013-10-26 23:00:00,43.6,33.4,29.83,WSW,257,3.0,9.0,67,0.00,,OVC085,0.00,VWS V14.01,2013-10-27 03:00:00,
2013-10-26 23:05:00,43.6,33.8,29.84,West,277,4.0,5.0,68,0.00,,OVC085,0.00,VWS V14.01,2013-10-27 03:05:00,
2013-10-26 23:10:00,43.7,33.8,29.84,WSW,257,3.0,9.0,68,0.00,,OVC085,0.00,VWS V14.01,2013-10-27 03:10:00,
2013-10-26 23:15:00,43.8,33.6,29.83,SW,226,7.0,9.0,67,0.00,,OVC085,0.00,VWS V14.01,2013-10-27 03:15:00,
2013-10-26 23:20:00,43.8,33.9,29.84,WSW,248,4.0,9.0,68,0.00,,OVC085,0.00,VWS V14.01,2013-10-27 03:20:00,
2013-10-26 23:25:00,43.8,33.9,29.83,WSW,245,5.0,9.0,68,0.00,,OVC085,0.00,VWS V14.01,2013-10-27 03:25:00,
2013-10-26 23:31:00,43.8,34.3,29.83,WSW,245,5.0,9.0,69,0.00,,OVC085,0.00,VWS V14.01,2013-10-27 03:31:00,
2013-10-26 23:36:00,43.8,33.9,29.83,WSW,250,6.0,8.0,68,0.00,,OVC085,0.00,VWS V14.01,2013-10-27 03:36:00,
2013-10-26 23:41:00,43.8,34.3,29.83,West,260,5.0,8.0,69,0.00,,OVC085,0.00,VWS V14.01,2013-10-27 03:41:00,
2013-10-26 23:46:00,43.7,34.2,29.83,WSW,242,5.0,8.0,69,0.00,,OVC080,0.00,VWS V14.01,2013-10-27 03:46:00,
2013-10-26 23:51:00,43.8,34.3,29.84,West,266,3.0,8.0,69,0.00,,OVC080,0.00,VWS V14.01,2013-10-27 03:51:00,
2013-10-26 23:56:00,43.7,34.2,29.84,West,273,3.0,8.0,69,0.00,,OVC080,0.00,VWS V14.01,2013-10-27 03:56:00,